Crane Lake, MN

8:20 AM CDT on May 23, 2017 (GMT -0500)
Crane Lake

Weather History for KCDD - June, 2013

Change the Weather History Date:

Tuesday, June 18, 2013

  Actual Average Record
Temperature  
Mean Temperature 56 °F -  
Max Temperature 75 °F 70 °F 82 °F (2005)
Min Temperature 37 °F 49 °F 37 °F (2013)
Degree Days  
Heating Degree Days 9    
Growing Degree Days 6 (Base 50)    
Moisture  
Dew Point 45 °F    
Average Humidity 69    
Maximum Humidity 100    
Minimum Humidity 27    
Precipitation  
Precipitation 0.00 in - - ()
Sea Level Pressure  
Sea Level Pressure 30.12 in    
Wind  
Wind Speed 1 mph (South)    
Max Wind Speed 7 mph    
Max Gust Speed -    
Visibility 10 miles    
Events      
Averages and records for this station are not official NWS values.
T = Trace of Precipitation, MM = Missing Value Source: NWS Daily Summary

Daily Weather History Graph

Daily Weather History Graph

Search for Another Location

Airport or City:

Trip Planner

Search our weather history database for the weather conditions in past years. The results will help you decide how hot, cold, wet, or windy it might be!

Date:

Astronomy

Jun. 18, 2013 Rise Set
Actual Time 5:08 AM CDT 9:13 PM CDT
Civil Twilight 4:26 AM CDT 9:55 PM CDT
Nautical Twilight 3:28 AM CDT 10:54 PM CDT
Astronomical Twilight 1:41 AM CDT 12:41 AM CDT
Moon 3:40 PM CDT (6/18) 1:38 AM CDT (6/18)
Length of Visible Light 17h 28m
Length of Day
16h 05m
Waxing Gibbous, 71% of the Moon is Illuminated
Jun 18
Waxing Gibbous
Jun 23
Full
Jun 29
Last Quarter
Jul 8
New
Jul 15
First Quarter

Hourly Weather History & Observations

Time (CDT) Temp. Dew Point Humidity Pressure Visibility Wind Dir Wind Speed Gust Speed Precip Events Conditions
12:13 AM 42.8 °F 39.2 °F 87% 30.11 in 10.0 mi Calm Calm - N/A   Clear
12:33 AM 41.0 °F 39.2 °F 93% 30.12 in 10.0 mi Calm Calm - N/A   Clear
12:53 AM 41.0 °F 39.2 °F 93% 30.12 in 10.0 mi Calm Calm - N/A   Clear
1:13 AM 41.0 °F 39.2 °F 93% 30.13 in 10.0 mi Calm Calm - N/A   Clear
1:32 AM 41.0 °F 39.2 °F 93% 30.13 in 7.0 mi Calm Calm - N/A   Clear
1:52 AM 41.0 °F 39.2 °F 93% 30.14 in 7.0 mi Calm Calm - N/A   Clear
2:13 AM 42.8 °F 39.2 °F 87% 30.15 in 7.0 mi Calm Calm - N/A   Clear
2:32 AM 42.8 °F 42.8 °F 100% 30.14 in 10.0 mi Calm Calm - N/A   Clear
2:52 AM 42.8 °F 42.8 °F 100% 30.15 in 10.0 mi Calm Calm - N/A   Clear
3:13 AM 41.0 °F 39.2 °F 93% 30.15 in 7.0 mi Calm Calm - N/A   Clear
3:32 AM 39.2 °F 37.4 °F 93% 30.16 in 7.0 mi Calm Calm - N/A   Clear
3:52 AM 39.2 °F 37.4 °F 93% 30.16 in 10.0 mi Calm Calm - N/A   Clear
4:12 AM 39.2 °F 37.4 °F 93% 30.17 in 7.0 mi Calm Calm - N/A   Clear
4:32 AM 37.4 °F 37.4 °F 100% 30.17 in 7.0 mi Calm Calm - N/A   Clear
4:53 AM 37.4 °F 37.4 °F 100% 30.17 in 7.0 mi Calm Calm - N/A   Clear
5:13 AM 37.4 °F 35.6 °F 93% 30.17 in 10.0 mi Calm Calm - N/A   Clear
5:32 AM 37.4 °F 35.6 °F 93% 30.17 in 7.0 mi Calm Calm - N/A   Clear
5:52 AM 37.4 °F 35.6 °F 93% 30.18 in 7.0 mi Calm Calm - N/A   Clear
6:12 AM 37.4 °F 35.6 °F 93% 30.18 in 10.0 mi Calm Calm - N/A   Clear
6:32 AM 39.2 °F 37.4 °F 93% 30.18 in 7.0 mi Calm Calm - N/A   Clear
6:53 AM 44.6 °F 42.8 °F 93% 30.18 in 10.0 mi Calm Calm - N/A   Clear
7:12 AM 46.4 °F 46.4 °F 100% 30.19 in 10.0 mi Calm Calm - N/A   Clear
7:32 AM 50.0 °F 48.2 °F 94% 30.18 in 10.0 mi Calm Calm - N/A   Clear
7:53 AM 53.6 °F 51.8 °F 94% 30.18 in 10.0 mi Calm Calm - N/A   Clear
8:12 AM 55.4 °F 53.6 °F 94% 30.19 in 10.0 mi Calm Calm - N/A   Clear
8:32 AM 57.2 °F 55.4 °F 94% 30.19 in 10.0 mi Calm Calm - N/A   Clear
8:52 AM 59.0 °F 55.4 °F 88% 30.18 in 10.0 mi Calm Calm - N/A   Clear
9:13 AM 62.6 °F 57.2 °F 82% 30.19 in 10.0 mi Calm Calm - N/A   Clear
9:32 AM 62.6 °F 60.8 °F 94% 30.18 in 10.0 mi Calm Calm - N/A   Clear
9:52 AM 64.4 °F 62.6 °F 94% 30.18 in 10.0 mi Calm Calm - N/A   Clear
10:13 AM 66.2 °F 62.6 °F 88% 30.18 in 10.0 mi Calm Calm - N/A   Clear
10:32 AM 66.2 °F 64.4 °F 94% 30.17 in 10.0 mi WNW 3.5 mph - N/A   Clear
10:53 AM 68.0 °F 64.4 °F 88% 30.17 in 10.0 mi NNE 3.5 mph - N/A   Clear
11:13 AM 66.2 °F 64.4 °F 94% 30.17 in 10.0 mi NW 3.5 mph - N/A   Clear
11:32 AM 68.0 °F 60.8 °F 78% 30.16 in 10.0 mi Calm Calm - N/A   Clear
11:53 AM 68.0 °F 55.4 °F 64% 30.15 in 10.0 mi WSW 3.5 mph - N/A   Clear
12:13 PM 69.8 °F 51.8 °F 53% 30.15 in 10.0 mi SSE 3.5 mph - N/A   Clear
12:32 PM 71.6 °F 53.6 °F 53% 30.14 in 10.0 mi Calm Calm - N/A   Scattered Clouds
12:52 PM 71.6 °F 46.4 °F 41% 30.14 in 10.0 mi SW 4.6 mph - N/A   Scattered Clouds
1:13 PM 71.6 °F 42.8 °F 35% 30.13 in 10.0 mi South 4.6 mph - N/A   Clear
1:32 PM 71.6 °F 41.0 °F 33% 30.13 in 10.0 mi SSE 3.5 mph - N/A   Clear
1:52 PM 71.6 °F 46.4 °F 41% 30.13 in 10.0 mi SSW 3.5 mph - N/A   Clear
2:12 PM 71.6 °F 44.6 °F 38% 30.12 in 10.0 mi Calm Calm - N/A   Mostly Cloudy
2:32 PM 71.6 °F 57.2 °F 60% 30.12 in 10.0 mi Calm Calm - N/A   Scattered Clouds
2:53 PM 73.4 °F 50.0 °F 44% 30.11 in 10.0 mi NNE 4.6 mph - N/A   Scattered Clouds
3:12 PM 73.4 °F 37.4 °F 27% 30.11 in 10.0 mi SSW 6.9 mph - N/A   Clear
3:33 PM 75.2 °F 57.2 °F 53% 30.11 in 10.0 mi NE 4.6 mph - N/A   Clear
3:52 PM 73.4 °F 37.4 °F 27% 30.10 in 10.0 mi Calm Calm - N/A   Clear
4:12 PM 73.4 °F 44.6 °F 36% 30.09 in 10.0 mi WSW 3.5 mph - N/A   Clear
4:32 PM 73.4 °F 37.4 °F 27% 30.09 in 10.0 mi SE 3.5 mph - N/A   Clear
4:52 PM 73.4 °F 37.4 °F 27% 30.08 in 10.0 mi SSE 4.6 mph - N/A   Clear
5:12 PM 73.4 °F 42.8 °F 33% 30.07 in 10.0 mi Calm Calm - N/A   Clear
5:32 PM 75.2 °F 39.2 °F 27% 30.07 in 10.0 mi Calm Calm - N/A   Clear
5:52 PM 75.2 °F 39.2 °F 27% 30.06 in 10.0 mi Calm Calm - N/A   Clear
6:13 PM 73.4 °F 37.4 °F 27% 30.06 in 10.0 mi Calm Calm - N/A   Clear
6:32 PM 73.4 °F 37.4 °F 27% 30.06 in 10.0 mi SSW 3.5 mph - N/A   Clear
6:53 PM 71.6 °F 37.4 °F 29% 30.05 in 10.0 mi Calm Calm - N/A   Clear
7:13 PM 69.8 °F 42.8 °F 38% 30.05 in 10.0 mi Calm Calm - N/A   Clear
7:32 PM 71.6 °F 42.8 °F 35% 30.05 in 10.0 mi Calm Calm - N/A   Clear
7:53 PM 68.0 °F 44.6 °F 43% 30.05 in 10.0 mi Calm Calm - N/A   Scattered Clouds
8:12 PM 64.4 °F 46.4 °F 52% 30.04 in 10.0 mi Calm Calm - N/A   Scattered Clouds
8:32 PM 60.8 °F 46.4 °F 59% 30.04 in 10.0 mi Calm Calm - N/A   Clear
8:52 PM 57.2 °F 48.2 °F 72% 30.04 in 10.0 mi Calm Calm - N/A   Scattered Clouds
9:12 PM 55.4 °F 46.4 °F 72% 30.05 in 10.0 mi Calm Calm - N/A   Mostly Cloudy
9:33 PM 53.6 °F 46.4 °F 77% 30.05 in 10.0 mi Calm Calm - N/A   Scattered Clouds
9:52 PM 53.6 °F 46.4 °F 77% 30.06 in 10.0 mi South 3.5 mph - N/A   Scattered Clouds
10:12 PM 55.4 °F 44.6 °F 67% 30.06 in 10.0 mi South 3.5 mph - N/A   Clear
10:33 PM 55.4 °F 41.0 °F 58% 30.06 in 10.0 mi Calm Calm - N/A   Clear
10:52 PM 53.6 °F 39.2 °F 58% 30.06 in 10.0 mi South 3.5 mph - N/A   Clear
11:12 PM 51.8 °F 39.2 °F 62% 30.06 in 10.0 mi Calm Calm - N/A   Clear
11:32 PM 48.2 °F 37.4 °F 66% 30.06 in 10.0 mi Calm Calm - N/A   Clear
11:52 PM 46.4 °F 37.4 °F 71% 30.06 in 10.0 mi Calm Calm - N/A   Clear